Flag for Colombia Weather past 2 weeks in Barranquilla, Colombia

Now
88 °F

Partly sunny.


Feels Like: 102 °F
Forecast: 81 / 91 °F
Wind: 5 mph from South

Location: Barranquilla / Ernestocortissoz

Current Time: Aug 22, 2014 at 9:51:47 AM

Latest Report: Aug 22, 2014 at 9:00 AM


Visibility: N/A

Pressure: 29.87 "Hg

Humidity: 75%

Dew point: 79 °F

Location of BarranquillaLocation

Historic Weather in Barranquilla — Graph

°F

Barranquilla temperature yesterday

Maximum temperature yesterday: 90 °F (at 10:00 AM)
Minimum temperature yesterday: 79 °F (at 6:00 AM)
Average temperature yesterday: 84 °F

Past Weeks' High & Low Weather Summary

 TemperatureHumidityPressure
High95 °F (Aug 7, 1:00 PM)100% (Aug 9, 4:00 AM)29.94 "Hg (Aug 9, 4:00 AM)
Low73 °F (Aug 20, 6:00 AM)53% (Aug 8, 12:00 PM)29.76 "Hg (Aug 17, 4:00 PM)
Average84 °F81%29.84 "Hg
* Reported Aug 7 9:00 AM — Aug 22 9:00 AM, Barranquilla, Weather by CustomWeather, © 2014

Note: Actual official high and low records may vary slightly from our data, if they occured in-between our weather recording intervals... More about our weather records

Advertising

Barranquilla weather history for previous 24 hours

 ConditionsComfort  
Time TempWeatherWind HumidityBarometerVisibility
9:00 AM
Aug 22
88 °FPartly sunny.5 mph75%29.87 "HgN/A
8:00 AM82 °FPartly sunny.5 mph89%29.86 "HgN/A
7:00 AM81 °FFog.3 mph94%29.85 "Hg3 mi
6:00 AM81 °FFog.No wind94%29.82 "Hg2 mi
5:00 AM81 °FPassing clouds.3 mph94%29.82 "HgN/A
4:00 AM81 °FPassing clouds.5 mph89%29.81 "HgN/A
3:00 AM81 °FPassing clouds.12 mph89%29.80 "HgN/A
2:00 AM81 °FPassing clouds.12 mph89%29.81 "HgN/A
1:00 AM81 °FPassing clouds.15 mph89%29.82 "HgN/A
12:00 AM82 °FPassing clouds.9 mph79%29.85 "HgN/A
11:00 PM
Aug 21
82 °FPassing clouds.8 mph79%29.86 "HgN/A
10:00 PM82 °FPassing clouds.9 mph79%29.86 "HgN/A
9:00 PM82 °FPassing clouds.6 mph84%29.85 "HgN/A
8:00 PM82 °FPassing clouds.7 mph84%29.84 "HgN/A
7:00 PM82 °FPassing clouds.7 mph84%29.82 "HgN/A
6:00 PM84 °FPartly sunny.7 mph79%29.82 "HgN/A
5:00 PM86 °FScattered clouds.14 mph75%29.81 "HgN/A
4:00 PM88 °FScattered clouds.5 mph70%29.80 "Hg5 mi
3:00 PM86 °FScattered clouds.13 mph75%29.81 "HgN/A
2:00 PM86 °FPartly sunny.13 mph75%29.82 "HgN/A
1:00 PM88 °FPartly sunny.12 mph70%29.85 "Hg5 mi
12:00 PM88 °FPartly sunny.9 mph70%29.87 "Hg3 mi
11:00 AM88 °FPartly sunny.8 mph70%29.89 "Hg3 mi
10:00 AM90 °FScattered clouds.6 mph67%29.90 "HgN/A
9:00 AM84 °FScattered clouds.3 mph79%29.90 "HgN/A
Weather by CustomWeather, © 2014

See weather overviewHow to use our weather pages